Location: Pisa
(43.7170°N, 10.3830°E)
Time: 23:22:18
(UTC+02:00)

ISS - Pass Details

Date: 17 May 2021
Orbit: 417 x 422 km, 51.6° (Epoch: 20 June)

Event Time Altitude Azimuth Distance (km) Brightness Sun altitude
Rises 03:42:07 0° 300° (WNW) 2,373 0.0 -18.5°
Reaches altitude 10° 03:44:14 10° 297° (WNW) 1,507 -1.0 -18.3°
Maximum altitude 03:47:35 64° 216° (SW) 469 -3.9 -17.9°
Drops below altitude 10° 03:50:55 10° 134° (SE) 1,500 -1.0 -17.5°
Sets 03:53:01 0° 131° (SE) 2,362 0.0 -17.3°
